User: anonymous   Login
Location: Bijele Vode
(45.2833°N, 16.2000°E)
Time: 06:31:41
(UTC+00:00)
Language:

Sich 1 Rocket - Orbit

View from above orbital plane
View from above orbital plane
View from above satellite
View from above satellite

Ground track
Ground track

The orbit data is extracted from the following two-line orbital elements,

1 23659U 95046C   20338.94862334  .00000124  00000-0  13734-4 0  9993
2 23659  82.5316 210.9059 0026898  55.2877 315.6654 14.78354396361230
Epoch (UTC): 03 December 2020 22:46:01
Eccentricity: 0.0026898
inclination: 82.5316°
perigee height: 615 km
apogee height: 653 km
right ascension of ascending node: 210.9059°
argument of perigee: 55.2877°
revolutions per day: 14.78354396
mean anomaly at epoch: 315.6654°
orbit number at epoch: 36123

The dashed part of the orbit path shows where the satellite is in the earth's shadow,  

DLR